Location: Lac de la Montagne noire
(46.1952°N, 74.2701°W)
Time: 06:39:00
(UTC-04:00)

ISS - Pass Details

Date: 31 March 2019
Orbit: 408 x 410 km, 51.6° (Epoch: 25 April)

Event Time Altitude Azimuth Distance (km) Brightness Sun altitude
Rises 21:12:05 0° 295° (WNW) 2,338 1.7 -18.6°
Reaches altitude 10° 21:14:14 10° 303° (WNW) 1,475 0.3 -18.9°
Maximum altitude 21:17:24 41° 16° (NNE) 601 -2.9 -19.4°
Enters shadow 21:17:44 40° 34° (NE) 618 -3.0 -19.4°
